Back to catalog

DELTA 1 DEB

AliveLEO
NORAD 14563·DEBRIS·🇺🇸 United States

Launched Jul 14, 1977 from Cape Canaveral Space Force Station

Loading…

Next Passes (next 24 hours)

TLE

FreshSource: Space-Track

Epoch: Sep 14, 2026, 14:58 UTC

1 14563U 77065FR  26257.62377720  .00001317  00000-0  16752-3 0  9996
2 14563  29.1738 106.4898 0424465 313.3188  43.2742 14.29317581800325

Track DELTA 1 DEB in real time with AllMySat

Download on the App Store